Aswan, Egypt

3:40 AM EET on May 01, 2017 (GMT +0200)
Aswan

Weather History for HESN - March, 2013

Change the Weather History Date:

Sunday, March 17, 2013

  Actual Average Record
Temperature  
Mean Temperature 70 °F -  
Max Temperature 80 °F 88 °F 93 °F (2008)
Min Temperature 61 °F 63 °F 51 °F (2007)
Cooling Degree Days 6    
Growing Degree Days 20 (Base 50)    
Moisture  
Dew Point 30 °F    
Average Humidity 22    
Maximum Humidity 32    
Minimum Humidity 8    
Precipitation  
Precipitation 0.00 in 0.00 in - ()
Sea Level Pressure  
Sea Level Pressure 29.98 in    
Wind  
Wind Speed 12 mph ()    
Max Wind Speed 17 mph    
Max Gust Speed -    
Visibility 4.1 miles    
Events      
Averages and records for this station are not official NWS values.
T = Trace of Precipitation, MM = Missing Value Source: Averaged Metar Reports

Daily Weather History Graph

Daily Weather History Graph

Search for Another Location

Airport or City:

Trip Planner

Search our weather history database for the weather conditions in past years. The results will help you decide how hot, cold, wet, or windy it might be!

Date:

Astronomy

Mar. 17, 2013 Rise Set
Actual Time 5:55 AM EET 5:58 PM EET
Civil Twilight 5:33 AM EET 6:21 PM EET
Nautical Twilight 5:07 AM EET 6:47 PM EET
Astronomical Twilight 4:40 AM EET 7:14 PM EET
Moon 9:28 AM EET (3/17) 11:06 PM EET (3/17)
Length of Visible Light 12h 48m
Length of Day
12h 02m
Waxing Crescent, 29% of the Moon is Illuminated
Mar 17
Waxing Crescent
Mar 19
First Quarter
Mar 27
Full
Apr 3
Last Quarter
Apr 10
New

Hourly Weather History & Observations

Time (EET) Temp. Dew Point Humidity Pressure Visibility Wind Dir Wind Speed Gust Speed Precip Events Conditions
12:00 AM 69.8 °F 35.6 °F 28% 29.95 in - NNW 15.0 mph - N/A   Clear
1:00 AM 68.0 °F 35.6 °F 30% 29.95 in - NNW 15.0 mph - N/A   Clear
2:00 AM 67 °F 35 °F 20% 29.95 in 6 mi NNW 13.8 mph - -  
2:00 AM 66.2 °F 35.6 °F 32% 29.95 in - NNW 13.8 mph - N/A   Clear
3:00 AM 66.2 °F 33.8 °F 30% 29.95 in - NNW 11.5 mph - N/A   Clear
4:00 AM 64.4 °F 30.2 °F 28% 29.95 in - NNW 11.5 mph - N/A   Clear
5:00 AM 62.6 °F 28.4 °F 27% 29.98 in - NNW 12.7 mph - N/A   Clear
6:00 AM 60.8 °F 26.6 °F 27% 29.98 in - NNW 13.8 mph - N/A   Clear
7:00 AM 62.6 °F 26.6 °F 26% 30.01 in - NNW 15.0 mph - N/A   Clear
8:00 AM 64 °F 28 °F 15% 30.04 in 4 mi North 13.8 mph - -   Blowing Sand
8:00 AM 64.4 °F 28.4 °F 26% 30.04 in 3.7 mi North 13.8 mph - N/A   Unknown
9:00 AM 68.0 °F 28.4 °F 23% 30.04 in 3.7 mi North 13.8 mph - N/A   Unknown
10:00 AM 69.8 °F 28.4 °F 21% 30.04 in 2.5 mi North 17.3 mph - N/A   Sand
11:00 AM 71.6 °F 28.4 °F 20% 30.04 in 1.6 mi North 16.1 mph - N/A   Sand
12:00 PM 75.2 °F 30.2 °F 19% 30.01 in 1.6 mi North 16.1 mph - N/A   Sand
1:00 PM 77.0 °F 28.4 °F 17% 29.98 in 3.7 mi NNW 13.8 mph - N/A   Unknown
2:00 PM 78 °F 29 °F 8% 29.95 in 5 mi North 13.8 mph - -   Blowing Sand
2:00 PM 78.8 °F 28.4 °F 16% 29.98 in 5.0 mi North 13.8 mph - N/A   Unknown
3:00 PM 80.6 °F 28.4 °F 15% 29.95 in - North 11.5 mph - N/A   Clear
4:00 PM 78.8 °F 30.2 °F 17% 29.95 in - North 11.5 mph - N/A   Clear
5:00 PM 78.8 °F 26.6 °F 15% 29.95 in - North 11.5 mph - N/A   Clear
6:00 PM 75.2 °F 30.2 °F 19% 29.95 in 5.0 mi North 15.0 mph - N/A   Unknown
7:00 PM 73.4 °F 28.4 °F 19% 29.98 in 5.0 mi North 13.8 mph - N/A   Unknown
8:00 PM 71 °F 29 °F 12% 29.98 in 6 mi NNW 9.2 mph - -  
8:00 PM 69.8 °F 30.2 °F 23% 29.98 in - NNW 9.2 mph - N/A   Clear
9:00 PM 68.0 °F 30.2 °F 24% 30.01 in - NNW 8.1 mph - N/A   Clear
10:00 PM 66.2 °F 30.2 °F 26% 30.01 in - NW 4.6 mph - N/A   Clear
11:00 PM 64.4 °F 32.0 °F 30% 30.01 in - NNW 6.9 mph - N/A   Clear